User: anonymous   Login
Location: San Francisco
(37.7750°N, 122.4180°W)
Time: 23:46:21
(UTC-07:00)
Language:

GP-B - Orbit

View from above orbital plane
View from above orbital plane
View from above satellite
View from above satellite

Ground track
Ground track

The orbit data is extracted from the following two-line orbital elements,

1 28230U 04014A   16238.19051517  .00000134  00000-0  16099-4 0  9990
2 28230  89.8600 127.5007 0003175  99.7947 260.3634 14.78453473665367
Epoch (UTC): 25 August 2016 04:34:20
Eccentricity: 0.0003175
inclination: 89.8600°
perigee height: 632 km
apogee height: 636 km
right ascension of ascending node: 127.5007°
argument of perigee: 99.7947°
revolutions per day: 14.78453473
mean anomaly at epoch: 260.3634°
orbit number at epoch: 66536

The dashed part of the orbit path shows where the satellite is in the earth's shadow,  

DLR